TimeCST,TemperatureF,Dew PointF,Humidity,Sea Level PressureIn,VisibilityMPH,Wind Direction,Wind SpeedMPH,Gust SpeedMPH,PrecipitationIn,Events,Conditions,WindDirDegrees,DateUTC
12:32 AM,-14.8,-20.2,77,30.15,3.0,NNW,21.9,28.8,0.00,Snow,Light Snow,340,2013-01-31 06:32:00
12:40 AM,-14.8,-20.2,77,30.15,3.0,NNW,20.7,-,0.00,,Overcast,330,2013-01-31 06:40:00
12:45 AM,-14.8,-20.2,77,30.15,4.0,NNW,18.4,-,0.00,,Overcast,340,2013-01-31 06:45:00
12:52 AM,-15.0,-22.0,71,30.36,4.0,NNW,21.9,25.3,0.00,,Overcast,340,2013-01-31 06:52:00
1:09 AM,-14.8,-22.0,70,30.16,4.0,NNW,16.1,-,0.00,Snow,Light Snow,330,2013-01-31 07:09:00
1:31 AM,-16.6,-22.0,76,30.17,8.0,NNW,20.7,-,0.00,,Overcast,330,2013-01-31 07:31:00
1:41 AM,-16.6,-22.0,76,30.18,9.0,NW,16.1,-,0.00,,Overcast,320,2013-01-31 07:41:00
1:52 AM,-16.1,-22.0,74,30.39,10.0,NW,16.1,-,0.00,,Mostly Cloudy,320,2013-01-31 07:52:00
2:39 AM,-16.6,-22.0,76,30.21,7.0,NW,17.3,-,0.00,,Mostly Cloudy,320,2013-01-31 08:39:00
2:52 AM,-17.0,-23.1,74,30.43,10.0,NW,16.1,-,0.00,,Scattered Clouds,320,2013-01-31 08:52:00
3:52 AM,-18.0,-24.0,74,30.45,10.0,WNW,11.5,-,N/A,,Clear,300,2013-01-31 09:52:00
4:52 AM,-18.9,-26.0,70,30.47,10.0,WNW,13.8,-,N/A,,Clear,300,2013-01-31 10:52:00
5:52 AM,-20.0,-26.0,74,30.50,10.0,WNW,15.0,-,N/A,,Clear,300,2013-01-31 11:52:00
6:52 AM,-20.0,-26.0,74,30.52,10.0,WNW,10.4,-,N/A,,Clear,300,2013-01-31 12:52:00
7:52 AM,-20.9,-26.0,77,30.53,10.0,WSW,5.8,-,N/A,,Clear,250,2013-01-31 13:52:00
8:52 AM,-20.9,-27.0,73,30.54,10.0,West,10.4,-,N/A,,Clear,270,2013-01-31 14:52:00
9:52 AM,-20.0,-27.0,70,30.56,10.0,West,8.1,-,N/A,,Clear,270,2013-01-31 15:52:00
10:52 AM,-17.0,-25.1,67,30.56,10.0,WNW,13.8,-,N/A,,Clear,300,2013-01-31 16:52:00
11:52 AM,-15.0,-23.1,67,30.55,10.0,West,10.4,-,N/A,,Clear,280,2013-01-31 17:52:00
12:52 PM,-14.1,-22.0,68,30.53,10.0,West,10.4,-,N/A,,Clear,270,2013-01-31 18:52:00
1:52 PM,-13.0,-20.9,68,30.51,10.0,West,11.5,-,N/A,,Clear,270,2013-01-31 19:52:00
2:52 PM,-11.0,-20.0,64,30.48,10.0,West,11.5,-,N/A,,Clear,260,2013-01-31 20:52:00
3:52 PM,-9.9,-18.9,65,30.46,10.0,West,9.2,-,N/A,,Clear,260,2013-01-31 21:52:00
4:52 PM,-9.9,-18.9,65,30.45,10.0,West,6.9,-,N/A,,Clear,270,2013-01-31 22:52:00
5:52 PM,-11.9,-18.9,71,30.43,10.0,SW,4.6,-,N/A,,Clear,230,2013-01-31 23:52:00
6:52 PM,-9.9,-18.0,68,30.40,10.0,Calm,Calm,-,N/A,,Mostly Cloudy,0,2013-02-01 00:52:00
7:52 PM,-9.0,-16.1,71,30.38,10.0,Calm,Calm,-,N/A,,Overcast,0,2013-02-01 01:52:00
8:52 PM,-8.0,-15.0,71,30.35,10.0,SSE,4.6,-,N/A,,Overcast,160,2013-02-01 02:52:00
9:52 PM,-6.0,-13.0,72,30.32,10.0,South,3.5,-,N/A,,Overcast,190,2013-02-01 03:52:00
10:52 PM,-4.0,-9.9,76,30.28,10.0,South,4.6,-,0.00,Snow,Light Snow,180,2013-02-01 04:52:00
11:52 PM,-2.0,-8.0,76,30.24,10.0,SSE,5.8,-,0.00,,Overcast,150,2013-02-01 05:52:00